Location: Caserta
(41.0670°N, 14.3330°E)
Time: 01:02:28
(UTC+01:00)

STARLINK-1329 - Pass Details

Date: 06 October 2020
Orbit: 548 x 551 km, 53.0° (Epoch: 27 October)

Event Time Altitude Azimuth Distance (km) Brightness Sun altitude
Exits shadow 05:02:47 17° 348° (NNW) 1,417 5.7 -23.6°
Maximum altitude 05:02:53 17° 349° (N) 1,417 5.7 -23.6°
Drops below altitude 10° 05:05:42 10° 32° (NNE) 1,828 6.9 -23.1°
Sets 05:08:35 0° 53° (NE) 2,724 8.3 -22.6°
